Regional Weather Roundup
Issued by NWS

Home | Current Version | Previous Version | Text Only | Print | Product List | Glossary Off
Versions: 1 2 3 4 5 6 7 8 9 10 11 12 13 14 15 16 17 18 19 20 21 22 23 24 25 26 27 28 29 30 31 32 33 34 35 36 37 38 39 40 41 42 43 44 45 46 47 48 49 50

000
ASUS43 KBIS 012202
RWRND

NORTH DAKOTA REGIONAL WEATHER ROUNDUP
NATIONAL WEATHER SERVICE BISMARCK ND
500 PM CDT SUN MAY 01 2016

NOTE: "FAIR" INDICATES FEW OR NO CLOUDS BELOW 12,000 FEET WITH NO
SIGNIFICANT WEATHER AND/OR OBSTRUCTIONS TO VISIBILITY.


NDZ001>003-009>011-017-012300-
NORTHWEST NORTH DAKOTA

CITY           SKY/WX    TMP DP  RH WIND       PRES   REMARKS
WILLISTON      SUNNY     68  25  19 N8        30.20F
MINOT          SUNNY     69  23  17 SW6       30.18F
MINOT AFB      SUNNY     65  26  23 VRB6      30.18F
$$

NDZ018>021-031>035-040>046-012300-
SOUTHWEST NORTH DAKOTA

CITY           SKY/WX    TMP DP  RH WIND       PRES   REMARKS
BISMARCK       SUNNY     65  30  27 SW5       30.21F
DICKINSON      SUNNY     63  28  26 N8        30.19F
GARRISON         N/A     62  24  23 S8        30.20F
HETTINGER ARPT SUNNY     63  26  24 NE5       30.23F
$$

NDZ004>008-012>016-024-026-027-054-012300-
NORTHEAST NORTH DAKOTA

CITY           SKY/WX    TMP DP  RH WIND       PRES   REMARKS
GRAND FORKS    SUNNY     66  28  24 E3        30.16F
GRND FRKS AFB  SUNNY     64  25  22 NE5       30.17F
DEVILS LAKE    SUNNY     62  27  26 SW7       30.19F
$$

NDZ022-023-025-028>030-036>039-047>053-012300-
SOUTHEAST NORTH DAKOTA

CITY           SKY/WX    TMP DP  RH WIND       PRES   REMARKS
FARGO          SUNNY     67  27  22 VRB3      30.15F
JAMESTOWN      SUNNY     63  28  26 VRB6      30.18F
$$




USA.gov is the U.S. government's official web portal to all federal, state and local government web resources and services.